Wind_Speed
15 14 14 12 11 10 10 10 9 8 7 6 6 6 6 7 7 7 9 11 12 13 14 15 15 14 14 15 16 17 18 18 20 20 21 22 23 24 25 25 26 27
18 18 17 16 14 13 13 13 12 11 11 10 10 9 9 9 9 10 11 13 14 16 16 17 17 17 17 17 17 18 18 19 20 20 21 23 24 25 26 26 26 27
20 20 20 19 18 17 16 16 15 15 15 15 14 14 14 13 13 14 14 15 16 18 19 19 19 20 19 19 18 19 19 20 20 21 22 23 25 26 27 27 27 27
23 22 21 21 20 20 19 19 18 17 18 18 19 18 18 18 18 18 18 18 19 20 21 21 21 22 21 21 20 20 20 21 21 22 23 24 26 27 28 28 28 28
24 23 23 22 22 22 22 22 21 20 20 20 21 21 21 21 21 22 22 22 22 22 23 24 24 24 23 22 22 21 21 22 23 24 24 25 27 28 29 30 30 29
24 24 24 23 24 24 25 24 23 23 23 22 23 23 23 23 24 24 25 25 25 25 25 25 26 25 25 24 24 23 23 23 24 25 26 26 27 29 30 31 31 32
25 25 24 24 25 25 26 25 25 24 24 24 25 25 24 25 25 25 26 27 27 26 26 26 27 27 26 25 25 25 24 24 25 27 28 28 29 30 32 33 33 34
26 26 26 26 26 26 26 26 25 25 25 26 26 26 26 26 26 26 27 28 28 28 27 27 28 28 27 27 27 27 27 26 27 28 29 30 31 32 33 35 35 35
28 28 28 28 28 28 27 27 26 26 27 28 28 27 27 27 27 28 28 29 29 29 29 28 29 29 29 28 28 29 29 28 28 29 30 31 32 34 35 36 38 38
30 30 30 30 30 30 28 27 26 27 28 29 29 29 29 29 29 29 30 30 30 30 30 30 30 30 31 31 30 31 32 31 30 30 31 32 34 35 36 38 40 41
32 32 32 32 32 31 29 28 28 29 30 30 30 30 30 31 31 31 32 32 32 32 32 32 31 31 32 33 33 32 33 33 33 32 33 34 35 36 38 40 41 43
34 34 34 33 32 31 30 30 30 31 31 31 31 31 31 32 32 33 33 34 33 34 34 33 33 33 34 35 34 34 34 35 36 36 35 36 37 38 40 41 43 45
36 35 35 34 33 32 32 32 33 33 33 32 32 33 34 34 35 35 36 36 36 36 36 35 34 34 35 36 36 36 36 36 38 39 39 39 39 41 42 44 45 47
37 35 34 34 33 33 34 34 34 34 34 34 34 35 36 37 37 37 38 38 38 37 37 36 36 37 37 38 38 37 37 37 39 40 41 42 42 43 45 46 48 49
37 35 35 34 34 35 35 35 35 36 36 37 37 37 38 39 39 39 40 39 39 38 38 39 39 40 40 39 39 39 39 39 40 42 43 44 45 46 48 49 50 52
37 36 36 36 36 37 37 36 37 37 38 38 38 39 39 39 40 40 40 40 40 40 41 41 42 42 41 41 41 41 41 42 43 44 45 47 48 50 51 52 53 54
38 38 37 37 38 38 38 38 38 38 38 39 39 39 39 40 41 41 42 42 42 43 43 43 43 43 43 43 43 43 44 45 46 46 48 49 51 53 54 55 56 57
40 39 39 39 39 39 39 39 39 40 41 41 41 41 41 42 43 43 43 44 44 44 45 45 45 45 45 45 46 46 47 48 49 50 51 52 54 55 57 58 59 60
42 41 42 43 42 42 42 42 42 43 44 44 44 44 44 45 45 45 45 46 46 47 47 47 48 48 49 49 49 49 49 50 52 53 55 56 57 58 60 61 62 62
45 45 45 46 45 45 45 45 46 46 46 46 46 46 47 47 47 47 48 48 49 49 50 50 51 51 52 52 53 53 53 54 55 56 58 60 61 61 62 62 63 63
48 47 48 48 47 47 48 48 48 49 49 49 48 48 49 50 50 51 51 52 52 53 53 54 55 55 55 56 56 57 57 58 58 59 60 61 62 62 62 62 62 61
51 50 50 51 51 51 51 52 52 52 52 52 52 52 53 53 54 55 55 55 56 57 57 58 58 58 59 60 60 60 60 60 60 59 59 60 60 60 59 58 58 57
54 54 54 55 55 56 56 57 56 56 56 56 56 56 57 58 58 58 59 59 60 60 60 60 60 59 60 60 61 60 59 57 56 55 54 54 54 54 53 52 51 50
57 57 57 58 58 59 59 59 58 57 57 57 57 58 58 59 59 58 58 58 58 58 58 57 56 56 56 56 55 55 53 51 50 48 47 47 48 48 48 47 46 45
55 55 55 55 56 56 55 54 54 53 53 53 53 53 53 53 53 52 52 52 52 52 51 50 50 49 49 49 49 49 48 48 46 45 44 44 44 44 44 44 44 44
48 48 48 48 48 48 48 47 47 47 46 46 46 46 46 46 46 46 46 47 47 46 45 45 44 44 43 44 45 45 46 47 45 44 44 44 44 43 43 43 43 43
Wind_Direction
237 242 245 246 247 250 254 256 256 258 260 258 260 263 266 273 286 297 303 310 320 325 328 333 335 337 337 335 336 339 341 343 344 344 343 342 342 343 347 353 357 360
237 241 247 250 252 253 257 261 265 269 271 270 269 271 273 278 288 294 299 306 313 319 324 328 329 331 332 332 331 333 336 338 339 339 338 337 336 337 341 346 351 353
237 240 245 250 253 255 257 261 267 272 276 278 279 279 281 285 289 291 295 300 303 310 316 320 323 324 325 327 327 327 329 331 333 333 333 331 331 332 334 339 344 347
238 240 243 248 253 257 260 262 265 268 271 275 279 281 284 287 289 291 294 296 298 302 307 312 315 318 319 320 321 322 323 325 327 327 327 326 325 327 329 333 337 340
240 242 244 246 251 255 258 261 263 266 268 271 275 279 282 284 286 289 292 294 296 299 302 306 309 311 313 313 316 319 320 321 322 323 322 322 321 322 325 328 332 334
241 243 244 246 248 252 255 259 263 266 268 270 273 274 277 279 281 283 287 289 293 296 298 301 304 306 307 307 311 316 318 318 319 320 320 319 319 320 322 325 327 329
240 242 244 245 248 251 254 258 261 264 268 270 270 271 273 275 277 279 283 287 290 293 295 297 299 301 301 302 306 311 315 317 317 318 319 318 317 317 319 321 323 325
239 241 242 244 247 250 253 257 260 263 266 268 268 269 271 273 275 278 281 285 288 290 292 294 295 296 297 299 303 306 310 313 315 316 317 317 315 315 316 318 319 322
239 241 243 245 247 249 251 253 257 260 262 264 266 268 270 272 275 278 280 283 285 287 289 290 292 293 294 297 300 303 306 309 313 314 315 315 314 314 314 315 317 319
242 243 245 246 247 248 249 250 253 255 257 260 264 267 270 273 275 276 278 281 283 285 286 288 290 291 293 295 297 300 303 307 310 311 312 312 311 311 313 314 315 316
244 245 246 246 248 249 250 250 252 253 255 258 262 266 270 272 274 276 278 279 281 283 284 286 288 289 290 292 295 299 302 304 307 308 309 309 309 309 311 312 313 314
245 246 247 248 249 251 251 251 252 254 256 259 262 265 268 271 273 275 276 278 279 281 282 284 286 287 289 291 294 298 301 302 304 305 306 306 307 308 309 310 310 311
244 246 248 250 251 252 253 252 253 255 257 260 263 265 268 270 272 274 275 276 278 280 283 284 285 286 288 291 294 297 299 301 301 302 303 304 306 307 307 307 308 309
244 246 248 250 252 253 253 254 255 258 260 262 264 266 268 271 272 274 275 277 279 281 283 284 285 287 289 291 294 296 298 299 300 301 302 303 304 305 305 305 306 307
245 246 248 250 252 253 255 257 258 260 261 263 265 267 270 272 274 276 277 278 280 282 283 285 286 287 289 291 293 295 296 297 298 299 301 302 302 302 302 303 304 305
248 250 251 252 254 255 257 259 260 261 263 265 267 269 271 273 275 276 278 280 282 283 284 285 287 288 290 291 293 294 294 296 296 297 298 299 300 300 301 302 303 304
252 253 254 255 256 257 258 260 262 263 265 266 267 269 271 273 274 276 278 280 281 283 284 285 286 288 289 290 291 292 293 294 295 295 296 296 297 298 300 301 302 302
254 255 256 257 258 258 259 261 263 264 265 266 268 270 271 272 273 275 277 279 280 281 283 284 285 287 288 289 290 291 292 293 293 294 294 295 296 297 298 299 299 300
254 255 257 258 258 260 261 262 263 264 266 267 269 270 271 272 274 275 277 278 279 281 282 283 284 286 286 287 288 288 290 290 291 292 293 293 294 295 295 296 297 297
254 255 256 257 259 261 262 263 264 265 266 267 268 270 271 272 274 275 277 278 279 280 281 282 283 284 285 286 287 287 288 288 289 290 291 292 293 293 294 294 295 296
256 257 258 259 261 262 263 265 266 267 268 268 269 271 272 273 274 274 275 276 277 279 280 281 282 283 284 285 285 286 286 287 288 288 290 291 291 292 293 293 294 296
258 259 260 261 262 263 264 265 266 267 268 269 270 271 272 272 273 274 275 276 277 278 279 280 281 282 283 283 284 284 285 286 288 288 289 290 290 291 292 294 296 298
259 260 261 262 263 264 264 265 266 268 269 270 271 271 272 272 273 274 275 276 277 277 278 280 281 281 282 283 284 285 286 287 288 288 288 289 290 292 294 296 298 299
260 261 262 263 264 265 266 267 268 269 270 271 271 271 272 273 274 275 276 277 278 279 280 282 282 283 284 286 286 287 288 288 288 288 289 290 291 293 296 297 299 299
260 261 262 263 264 266 267 268 269 270 270 271 272 273 274 275 276 277 277 278 280 281 282 283 284 286 287 288 289 290 290 290 289 290 290 290 291 293 295 296 297 299
259 261 262 263 265 266 267 268 269 270 271 272 273 275 276 277 278 279 280 280 281 282 283 284 285 286 287 288 289 289 290 290 291 292 291 291 291 292 293 294 296 297
Height
10998 10999 10999 11000 11001 11001 11002 11002 11003 11003 11004 11005 11005 11005 11005 11006 11006 11006 11005 11005 11005 11005 11005 11005 11004 11004 11003 11002 11001 11000 11000 10999 10998 10996 10995 10993 10991 10989 10988 10988 10987 10986
10997 10998 10998 10999 11000 11000 11001 11001 11002 11002 11003 11003 11004 11004 11005 11005 11005 11005 11005 11005 11004 11004 11004 11004 11004 11003 11003 11002 11001 11000 10999 10998 10997 10995 10994 10992 10990 10988 10987 10987 10986 10985
10995 10996 10997 10998 10998 10999 10999 11000 11001 11001 11001 11002 11002 11002 11003 11003 11004 11004 11004 11004 11003 11003 11003 11003 11003 11002 11001 11001 11000 10999 10998 10997 10996 10995 10993 10991 10989 10987 10986 10985 10985 10984
10993 10994 10996 10996 10997 10997 10998 10999 11000 11000 11000 11000 11000 11001 11001 11001 11002 11002 11002 11002 11002 11002 11002 11001 11001 11001 11000 10999 10999 10998 10997 10996 10995 10993 10992 10990 10988 10986 10985 10984 10983 10982
10991 10992 10994 10995 10995 10996 10996 10997 10998 10998 10998 10999 10999 10999 10999 11000 11000 11000 11000 11000 11000 11000 11000 10999 10999 10999 10998 10998 10997 10997 10996 10995 10994 10992 10991 10989 10986 10984 10983 10982 10981 10980
10988 10990 10991 10992 10993 10993 10994 10994 10995 10996 10996 10997 10997 10997 10997 10997 10997 10997 10997 10997 10997 10998 10998 10997 10997 10996 10996 10995 10995 10995 10994 10993 10992 10990 10989 10987 10985 10983 10981 10980 10979 10977
10986 10987 10988 10989 10990 10991 10991 10992 10993 10993 10994 10994 10994 10994 10994 10994 10995 10995 10995 10994 10995 10995 10995 10995 10994 10994 10993 10993 10992 10992 10992 10991 10990 10988 10987 10985 10983 10981 10979 10977 10976 10975
10983 10984 10985 10986 10987 10988 10989 10990 10991 10991 10991 10991 10991 10991 10991 10991 10992 10992 10992 10992 10992 10992 10993 10992 10992 10991 10990 10990 10990 10989 10989 10989 10988 10986 10984 10982 10980 10979 10976 10974 10973 10972
10979 10980 10981 10982 10983 10984 10986 10987 10988 10988 10988 10988 10988 10988 10988 10989 10989 10989 10989 10989 10989 10989 10989 10989 10989 10988 10987 10987 10987 10987 10986 10986 10985 10984 10982 10980 10978 10976 10974 10972 10970 10969
10976 10976 10977 10978 10979 10980 10982 10984 10984 10984 10984 10984 10984 10985 10985 10986 10986 10986 10986 10986 10986 10986 10986 10986 10986 10985 10984 10984 10984 10984 10983 10982 10982 10981 10979 10977 10975 10973 10971 10969 10967 10965
10972 10973 10974 10975 10976 10977 10979 10980 10980 10980 10980 10980 10981 10982 10982 10983 10983 10983 10983 10983 10983 10983 10983 10983 10983 10982 10981 10981 10981 10981 10980 10978 10978 10977 10976 10974 10972 10970 10968 10966 10964 10962
10969 10969 10970 10972 10973 10975 10976 10977 10976 10976 10976 10977 10978 10978 10979 10979 10979 10980 10979 10979 10980 10980 10979 10980 10980 10979 10978 10977 10977 10977 10977 10975 10973 10972 10972 10971 10969 10967 10965 10963 10960 10958
10964 10966 10968 10969 10971 10972 10973 10973 10973 10973 10974 10974 10975 10975 10975 10975 10976 10976 10976 10976 10976 10976 10976 10976 10976 10975 10975 10974 10974 10974 10973 10972 10969 10968 10967 10967 10965 10964 10962 10959 10957 10955
10961 10963 10965 10966 10968 10969 10969 10970 10970 10971 10971 10971 10971 10971 10971 10972 10972 10972 10972 10972 10972 10972 10972 10972 10972 10971 10971 10970 10970 10970 10969 10968 10966 10964 10963 10962 10961 10960 10958 10955 10953 10951
10959 10961 10962 10963 10964 10965 10965 10966 10967 10968 10968 10968 10968 10968 10968 10968 10968 10969 10968 10968 10969 10969 10968 10968 10968 10967 10967 10966 10966 10966 10965 10964 10963 10961 10959 10958 10956 10955 10953 10951 10949 10947
10955 10957 10958 10959 10960 10960 10961 10962 10963 10963 10964 10964 10965 10965 10965 10965 10965 10965 10965 10965 10965 10965 10964 10964 10963 10963 10963 10962 10962 10962 10961 10960 10959 10958 10956 10954 10951 10950 10948 10946 10945 10942
10951 10952 10953 10954 10955 10956 10957 10957 10958 10959 10959 10960 10960 10961 10962 10962 10961 10961 10961 10961 10961 10960 10960 10959 10959 10959 10959 10958 10958 10957 10957 10956 10954 10953 10951 10949 10947 10945 10942 10941 10939 10937
10946 10948 10949 10949 10950 10951 10952 10953 10954 10954 10955 10955 10956 10957 10957 10957 10956 10957 10957 10957 10956 10956 10956 10955 10954 10954 10954 10954 10953 10952 10952 10951 10949 10948 10946 10944 10942 10939 10937 10935 10933 10931
10942 10944 10944 10944 10945 10947 10948 10949 10950 10950 10950 10951 10952 10952 10952 10952 10952 10952 10952 10952 10951 10951 10951 10951 10950 10949 10948 10948 10948 10948 10947 10946 10944 10942 10939 10937 10935 10933 10931 10929 10926 10924
10937 10938 10939 10939 10941 10942 10943 10944 10945 10945 10946 10947 10947 10948 10947 10947 10947 10947 10947 10947 10946 10946 10946 10945 10944 10943 10943 10942 10942 10941 10941 10941 10939 10936 10933 10930 10928 10926 10924 10922 10919 10917
10931 10933 10934 10935 10937 10938 10938 10939 10939 10940 10940 10941 10942 10943 10942 10942 10942 10941 10941 10941 10941 10940 10939 10939 10938 10938 10937 10936 10935 10934 10934 10933 10932 10931 10928 10924 10921 10919 10917 10915 10912 10911
10926 10928 10929 10930 10931 10932 10932 10932 10933 10934 10935 10936 10937 10937 10936 10936 10935 10935 10935 10935 10935 10934 10933 10933 10932 10932 10930 10928 10927 10927 10927 10926 10925 10924 10922 10918 10914 10912 10910 10909 10907 10905
10922 10923 10924 10924 10925 10925 10925 10926 10927 10928 10929 10930 10930 10930 10929 10929 10929 10929 10929 10928 10927 10927 10926 10926 10925 10925 10923 10920 10919 10918 10919 10919 10918 10917 10915 10912 10908 10906 10904 10903 10901 10899
10916 10917 10917 10918 10918 10918 10918 10920 10921 10923 10923 10923 10922 10922 10922 10922 10922 10922 10922 10921 10920 10919 10919 10918 10918 10917 10915 10913 10911 10910 10910 10911 10910 10909 10908 10906 10903 10901 10899 10897 10895 10893
10910 10910 10911 10911 10911 10912 10913 10914 10915 10915 10915 10915 10915 10915 10915 10915 10915 10915 10914 10913 10913 10912 10912 10911 10910 10910 10909 10906 10904 10903 10902 10901 10902 10902 10901 10899 10898 10896 10894 10891 10889 10887
10903 10904 10905 10905 10905 10906 10907 10907 10908 10908 10909 10909 10909 10909 10909 10909 10908 10908 10908 10906 10906 10906 10906 10906 10905 10905 10904 10901 10898 10897 10895 10893 10894 10894 10892 10891 10891 10890 10889 10887 10885 10883